CAPE
617 521 513 1075 99 4 16 44 93 50 4 29 4 5 3 0 0 0 0 0 0 105 694 1561 1893 1040 1343 1355 1614 1303 1478 1325 1059 1204 1273 1178 1420 1475 1567 1308 1406 1473 1258 1514 1537 1594 1601 1792 1852
369 825 1204 1189 23 2 7 17 80 44 3 4 0 0 0 0 0 0 0 0 168 410 768 1134 1829 1953 1372 1353 1471 1329 1130 1141 907 1061 1440 1456 1231 1557 1402 1585 1625 1514 1574 1785 1768 1177 1183 1540 1619
881 960 1453 1028 84 20 21 67 77 3 64 0 0 0 0 0 0 0 0 0 19 327 776 1201 2191 2278 1561 1507 1523 1543 1325 1412 1347 969 1157 1438 1206 1017 1059 1464 1597 1436 1644 1759 1778 1679 1491 1267 1431
1111 1609 1111 547 25 52 11 79 73 25 90 4 0 0 0 0 0 0 0 0 30 391 739 1891 1960 1426 1384 1929 1508 1572 1454 1441 1370 1343 1146 1088 1351 1155 1175 1367 1313 1178 1340 1428 1301 1380 1133 1006 955
1053 20 169 262 40 24 53 85 62 71 60 4 0 0 0 0 0 1 3 37 269 635 1098 1551 2162 1467 1337 1472 1557 1668 1490 1599 1433 1376 1235 1106 1170 1130 1203 1245 1120 1157 1149 864 833 706 614 876 713
1 0 20 6 0 20 59 64 36 25 1 0 0 0 0 0 0 8 8 21 181 399 709 1229 1455 1296 1396 1592 1710 1625 1791 1089 970 825 1226 1205 1058 947 877 974 1010 1092 992 654 733 592 670 871 778
50 58 52 29 5 14 35 42 42 8 0 0 0 0 0 0 0 0 17 28 51 227 331 438 390 801 1330 1457 1485 1813 1355 1385 1405 1238 645 488 626 819 933 1010 823 651 766 809 763 740 642 709 853
292 200 279 62 18 0 36 47 50 21 18 0 0 0 0 0 3 29 11 48 51 86 260 274 462 564 770 1214 1665 1281 1212 1446 1216 1173 1183 608 718 619 1065 488 500 649 598 529 517 538 537 690 640
217 51 181 52 16 22 58 49 0 10 1 5 4 0 0 0 21 0 0 3 98 114 191 332 469 371 453 841 1218 1485 1389 1186 1209 1183 1241 531 5 0 366 19 261 408 753 432 374 334 431 282 634
6 64 243 133 23 25 31 31 27 5 0 0 6 20 11 4 0 0 9 39 61 106 221 171 374 397 420 900 839 883 612 768 770 749 417 78 1 0 131 17 212 137 129 634 763 439 295 555 271
62 98 232 115 276 46 59 23 132 0 0 0 0 0 0 0 0 0 3 0 27 91 116 92 109 256 415 752 639 639 456 412 402 348 92 137 81 69 52 24 46 127 198 0 9 12 0 0 32
104 84 62 107 164 87 1 63 72 0 0 0 0 0 0 1 0 0 1 0 61 80 86 156 122 108 153 243 554 538 616 250 118 106 85 27 188 70 165 161 65 67 26 12 0 0 0 0 0
188 34 246 169 45 11 93 119 15 0 0 0 0 0 0 0 0 0 0 25 78 61 101 95 85 114 130 108 377 251 637 489 159 220 176 140 133 255 165 54 49 53 18 3 11 0 0 0 0
226 15 121 268 153 20 94 77 0 0 0 0 0 0 0 0 0 0 0 1 72 35 158 25 34 13 129 182 356 513 195 49 155 130 222 216 186 113 93 67 83 34 56 0 8 0 0 0 26
87 195 11 438 109 67 0 38 0 0 0 0 0 0 0 0 0 0 0 0 2 20 9 17 0 27 173 174 145 159 250 293 389 170 266 385 267 169 153 74 66 38 161 70 39 0 0 133 402
128 157 73 522 342 3 13 0 0 0 0 0 0 0 0 0 0 0 0 0 1 19 23 20 39 85 92 325 152 154 459 256 724 540 29 51 425 529 208 175 299 245 176 204 154 341 106 254 278
21 0 51 74 271 17 48 4 0 0 0 0 0 0 0 0 0 0 0 1 18 31 49 42 88 113 77 75 221 173 515 328 632 272 119 229 45 747 446 283 356 567 425 545 357 379 343 292 270
15 46 118 49 198 82 22 21 0 0 0 0 0 0 0 0 0 0 0 0 19 34 39 39 41 108 59 46 227 275 418 478 336 18 0 0 0 20 765 771 665 528 451 587 454 379 390 341 402
97 98 62 4 54 204 194 10 0 0 0 11 3 0 0 0 0 0 0 15 20 46 32 3 0 23 36 218 516 486 611 407 719 305 366 413 87 955 892 850 721 452 651 630 578 331 373 554 493
48 70 50 10 25 50 2 6 30 0 0 0 0 0 0 3 11 16 75 112 55 46 30 0 35 157 124 485 564 609 404 549 824 522 602 745 733 1523 1244 1062 883 548 519 678 612 551 715 613 631
9 67 133 36 87 33 40 2 4 59 19 0 0 0 0 0 0 2 82 77 44 33 14 43 320 571 596 686 716 1136 681 580 526 295 589 725 1433 1271 1250 838 931 920 599 490 528 712 657 627 573
33 37 245 102 50 78 1 22 90 147 61 0 0 3 8 27 0 1 110 72 43 50 36 88 171 113 312 438 766 1054 829 226 356 520 590 834 856 1044 1400 949 797 947 986 922 708 750 692 650 643
10 247 227 65 2 12 68 0 0 27 73 97 0 0 19 46 25 5 54 71 87 68 75 99 172 120 113 278 794 728 892 775 304 475 583 1 398 731 1474 1132 950 1003 802 1047 908 1038 812 772 667
8 24 60 111 7 11 0 0 6 0 0 66 28 1 5 0 18 5 39 81 99 149 268 255 297 285 229 479 873 938 1159 812 927 682 628 413 411 107 69 1535 1297 1045 1031 1185 1142 1008 913 864 948
24 0 0 0 0 32 18 0 44 3 11 63 159 514 159 92 87 96 95 19 49 176 370 327 322 777 856 680 868 954 1333 830 1176 757 552 807 62 0 0 1126 1484 1540 992 1067 1074 1233 1108 1244 885
1 0 0 3 15 27 45 49 79 55 243 337 338 237 308 76 119 336 343 129 42 128 297 495 423 454 1018 1463 1069 1178 1093 1497 1818 1190 892 732 214 121 416 312 595 874 1267 876 1213 1114 1083 959 1115
0 0 0 23 31 111 9 3 6 493 530 558 335 45 133 123 29 33 81 226 74 315 433 879 932 735 1035 1228 1857 1510 1493 1585 1646 1635 934 1141 669 865 630 337 9 48 834 866 1049 1164 948 1205 1170
9 0 18 12 25 6 12 0 0 43 683 510 333 16 0 3 8 32 145 115 23 121 520 890 1252 1213 1458 1485 1369 2017 2110 1829 1756 1730 1162 1121 1024 492 0 0 0 0 156 1326 871 1156 1257 887 927
0 0 0 0 5 24 25 0 27 0 123 548 371 98 1 0 0 20 66 42 118 52 198 1069 1468 1383 1421 1835 1855 1798 2247 2268 1983 2086 2236 1795 1204 598 108 0 0 0 0 970 1440 1262 1212 1379 1504
0 0 0 0 24 0 18 49 193 102 3 493 463 170 0 0 0 105 225 11 76 726 176 1322 1522 1415 1461 1705 2001 2182 2203 2527 2346 2143 2092 2090 1500 507 1 0 0 0 0 221 1735 1707 1963 1540 1350
CIN
-112 -115 -137 -61 -125 -10 -43 -31 -98 -77 -44 -58 -119 -124 -135 0 0 0 0 0 0 -87 -11 -1 0 -7 0 0 0 0 0 0 0 0 0 0 0 0 0 -5 0 0 0 0 0 0 0 0 0
-169 -77 -56 -84 -79 -8 -22 -52 -69 -58 -106 -147 0 0 0 0 0 0 0 0 -44 -39 -26 -10 0 0 0 0 0 0 0 0 -1 0 0 0 0 0 0 -9 0 0 0 0 0 0 0 0 0
-112 -85 -32 -88 -80 -43 -26 -31 -53 -109 -106 -8 0 0 0 0 0 0 0 0 -10 -39 -40 -15 0 0 0 0 0 0 0 0 0 -1 0 0 0 0 0 0 -2 -4 0 0 0 0 0 0 0
-81 -51 -94 -53 -27 -23 -39 -24 -50 -79 -49 -26 0 0 0 0 0 0 0 0 -85 -45 -31 0 0 0 0 0 0 0 0 0 0 0 0 0 0 -3 -1 0 0 -4 -4 -9 0 0 0 -1 -3
-107 -329 -111 -56 -30 -18 -33 -58 -86 -36 -75 -18 0 0 0 0 -10 -62 -166 -89 -70 -31 -10 -1 0 -2 -1 0 0 0 0 0 0 0 0 0 0 0 0 -3 -2 0 0 -1 -2 -9 -7 -1 -9
-50 0 -89 -39 -3 -20 -39 -30 -70 -95 -70 0 0 0 0 0 -4 -282 -220 -99 -70 -65 -27 -2 -1 -11 -1 0 0 0 0 -7 -2 0 0 0 0 -1 0 -3 0 0 0 -8 -8 -14 -10 -2 -11
-297 -280 -98 -47 -48 -30 -28 -39 -90 -150 0 0 0 0 0 0 0 0 -120 -120 -102 -91 -69 -48 -75 -35 -3 -9 -2 -1 -12 -2 0 0 -1 0 -2 0 0 -1 -7 0 0 0 -3 -6 -11 -7 -4
-253 -197 -113 -27 -69 -2 -26 -39 -61 -111 -122 0 0 0 0 0 -19 -106 -166 -144 -102 -120 -102 -124 -95 -77 -40 -31 -9 -26 -25 -6 -9 0 0 -5 -2 -2 -5 -17 -6 0 0 -5 -6 -10 -19 -13 -14
-293 -192 -92 -36 -51 -48 -42 -45 0 -155 -57 -108 -153 0 0 0 -138 0 0 -145 -134 -137 -134 -103 -111 -127 -105 -70 -41 -36 -29 -32 -18 -4 0 -38 -56 0 -19 -69 -15 -8 -1 -1 -12 -24 -30 -28 -13
-155 -200 -73 -68 -50 -46 -43 -55 -106 -115 0 0 -285 -235 -190 -51 0 -30 -98 -122 -151 -142 -108 -164 -150 -124 -110 -59 -80 -82 -91 -81 -49 -38 -57 -141 -66 0 -63 -92 -11 -25 -14 0 -5 -22 -39 -31 -40
-234 -135 -75 -24 -61 -25 -31 -24 -62 0 0 0 0 0 0 0 0 0 -89 0 -147 -125 -158 -172 -160 -126 -111 -77 -112 -122 -134 -132 -107 -84 -154 -122 -105 -98 -91 -99 -47 -33 -17 -5 -6 -91 0 0 -109
-129 -42 -68 -94 -88 -68 -4 -73 -109 0 0 0 0 0 0 -30 0 0 -97 0 -224 -154 -139 -179 -160 -170 -153 -132 -107 -119 -108 -160 -186 -154 -138 -139 -82 -106 -69 -49 -74 -62 -48 -61 0 0 0 0 0
-45 -123 -67 -70 -74 -133 -73 -96 -65 0 0 0 0 0 0 0 0 0 -69 -168 -217 -168 -160 -148 -197 -146 -131 -158 -118 -126 -97 -105 -148 -144 -157 -137 -124 -110 -94 -85 -96 -68 -38 -42 -99 0 0 0 0
-71 -150 -120 -80 -56 -107 -110 -140 0 0 0 0 0 0 0 0 0 0 0 -93 -251 -218 -153 -215 -159 -196 -133 -126 -122 -103 -135 -203 -175 -220 -195 -166 -138 -142 -116 -101 -100 -90 -49 0 -109 0 0 0 -90
-62 -38 -255 -121 -83 -119 0 -136 0 0 0 0 0 0 0 0 0 0 0 0 -293 -333 -323 -277 -13 -213 -137 -141 -197 -145 -139 -140 -125 -196 -173 -150 -160 -159 -133 -112 -137 -107 -17 -68 -122 0 0 -79 -68
-105 -154 -188 -52 -88 -147 -97 0 0 0 0 0 0 0 0 0 0 0 0 0 -125 -332 -324 -300 -157 -196 -202 -140 -149 -119 -110 -146 -126 -155 -232 -248 -151 -154 -123 -93 -62 -54 -42 -53 -90 -21 -86 -68 -92
-159 0 -140 -146 -99 -113 -105 -19 0 0 0 0 0 0 0 0 0 0 0 -169 -332 -348 -310 -276 -172 -175 -190 -215 -151 -122 -94 -168 -179 -219 -258 -195 -110 -117 -128 -107 -97 -68 -40 -21 -51 -44 -53 -76 -105
-72 -114 -108 -133 -63 -74 -168 -138 0 0 0 0 0 0 0 0 0 0 0 0 -342 -350 -379 -331 -288 -201 -227 -254 -178 -165 -162 -160 -212 -246 0 0 0 -122 -103 -100 -87 -95 -71 -37 -46 -62 -81 -93 -81
-76 -123 -147 -31 -87 -25 -97 -48 0 0 0 -194 -250 0 0 0 0 0 0 -313 -326 -319 -399 -465 -1 -344 -318 -229 -144 -120 -88 -149 -173 -242 -199 -199 -199 -103 -92 -108 -100 -135 -84 -66 -59 -109 -81 -64 -91
-202 -171 -153 -43 -207 -74 -151 -181 -99 0 0 0 0 0 0 -308 -279 -269 -211 -257 -354 -351 -375 -1 -380 -305 -271 -175 -137 -91 -98 -113 -146 -237 -181 -171 -156 -64 -82 -102 -110 -124 -121 -87 -85 -101 -60 -65 -78
-188 -242 -238 -123 -139 -243 -206 -188 -232 -125 -18 0 0 0 0 0 -23 -148 -202 -236 -326 -338 -442 -394 -269 -236 -210 -170 -135 -102 -137 -127 -142 -218 -168 -148 -110 -88 -64 -101 -107 -99 -140 -131 -122 -97 -91 -58 -96
-110 -224 -203 -214 -240 -173 -148 -130 -181 -175 -129 0 0 -67 -187 -353 0 -37 -217 -255 -287 -306 -359 -344 -296 -310 -240 -231 -167 -110 -118 -177 -161 -154 -185 -161 -130 -127 -68 -85 -106 -103 -105 -87 -105 -113 -95 -115 -59
-137 -201 -260 -322 -22 -262 -159 0 0 -282 -186 -170 0 -8 -142 -161 -236 -328 -237 -266 -282 -289 -316 -303 -321 -335 -273 -256 -180 -166 -146 -117 -223 -259 -225 -32 -235 -186 -69 -77 -85 -74 -105 -90 -80 -74 -95 -111 -92
-210 -256 -310 -379 -452 -133 0 0 -42 0 0 -125 -158 -21 -77 -7 -184 -209 -286 -254 -261 -287 -284 -304 -317 -316 -303 -251 -207 -171 -151 -173 -168 -202 -198 -285 -276 -268 -330 -86 -81 -84 -96 -74 -70 -76 -100 -85 -84
-193 0 0 0 0 -268 -479 0 -202 -173 -197 -186 -211 -222 -339 -305 -284 -211 -161 -254 -291 -295 -282 -277 -343 -295 -286 -250 -203 -202 -157 -202 -160 -212 -233 -205 -254 0 0 -151 -123 -115 -124 -87 -87 -72 -80 -72 -107
-3 0 0 -191 -198 -310 -411 -244 -144 -305 -239 -301 -319 -223 -224 -332 -240 -201 -273 -252 -229 -219 -257 -238 -294 -311 -284 -242 -227 -202 -198 -161 -139 -170 -227 -264 -375 -372 -339 -247 -179 -178 -150 -167 -100 -116 -105 -104 -86
0 0 0 -418 -468 -363 -270 -264 -465 -241 -336 -352 -326 -358 -310 -325 -221 -356 -242 -270 -303 -156 -229 -233 -260 -264 -262 -247 -228 -214 -194 -183 -157 -136 -227 -234 -296 -255 -295 -313 -412 -372 -205 -172 -134 -93 -86 -68 -76
-31 0 -180 -406 -278 -215 -178 0 0 -177 -309 -336 -351 -314 0 -156 -196 -352 -326 -278 -282 -225 -187 -196 -238 -251 -238 -223 -258 -217 -188 -190 -192 -161 -183 -234 -258 -344 0 0 0 0 -325 -124 -132 -96 -84 -88 -86
0 0 0 0 -215 -178 -141 0 -113 -40 -313 -290 -327 -414 -53 0 0 -396 -296 -321 -369 -300 -284 -190 -244 -249 -244 -235 -241 -235 -196 -188 -192 -175 -130 -173 -259 -372 -464 0 0 0 0 -160 -100 -97 -83 -69 -64
0 0 0 0 -237 -3 -314 -207 -370 -467 -497 -280 -277 -441 0 0 0 -421 -521 -632 -415 -266 -302 -184 -211 -236 -257 -242 -244 -232 -212 -190 -192 -190 -167 -132 -214 -396 -593 0 0 0 0 -364 -82 -68 -59 -61 -70
Wind_Speed
9 4 1 1 2 4 3 2 8 8 3 1 8 4 9 5 3 4 0 6 8 8 8 11 14 14 13 11 10 12 13 14 12 11 13 12 11 10 11 12 11 12 12 11 11 10 11 12 14
1 1 0 2 5 4 0 5 11 4 6 10 8 9 7 4 5 8 5 5 9 9 7 9 13 14 14 12 12 12 13 13 12 11 11 11 10 10 10 11 11 10 9 10 11 10 10 11 12
2 6 2 2 2 5 4 5 9 11 17 8 7 9 5 3 6 5 4 8 7 6 7 10 14 14 14 14 13 12 13 12 12 13 11 11 10 9 10 8 10 8 9 7 11 10 10 10 10
0 1 2 3 4 1 7 11 18 15 11 8 11 9 4 5 2 6 6 6 7 6 5 12 15 14 13 15 13 12 12 11 12 11 11 10 10 8 9 9 9 6 6 9 9 9 8 8 9
3 1 3 2 3 3 9 21 16 16 10 8 4 4 4 3 7 8 7 10 11 6 6 8 13 14 14 13 14 12 11 11 10 10 10 9 9 6 7 8 8 8 6 7 6 6 5 6 7
4 2 3 1 5 4 4 14 14 12 12 11 10 9 3 6 7 3 5 10 8 9 5 8 13 14 13 14 12 13 10 11 10 9 9 8 9 7 5 4 7 7 7 5 6 4 3 4 6
4 3 2 4 4 9 5 12 10 12 12 7 13 6 4 5 6 4 5 8 7 8 6 5 6 10 14 14 12 12 10 10 9 8 7 5 5 6 6 7 5 6 6 6 4 4 2 2 5
4 1 4 3 4 2 11 10 15 15 6 11 14 8 9 6 7 6 5 9 7 6 6 5 6 6 5 6 13 12 11 10 10 9 8 8 6 2 1 3 4 6 7 7 5 4 2 1 4
3 5 4 4 4 4 12 18 10 10 15 2 6 9 13 11 7 6 4 4 6 6 5 6 6 6 6 4 7 11 12 10 10 9 9 6 4 1 5 6 3 3 6 7 6 3 0 1 1
5 2 4 7 5 7 11 20 15 8 16 13 18 17 15 10 6 6 6 6 5 7 7 6 7 7 5 6 5 3 4 3 3 5 5 4 4 2 4 8 10 10 7 6 5 3 2 3 2
3 3 7 12 10 5 5 12 5 18 9 19 23 19 14 7 7 7 6 6 6 7 8 8 7 8 8 4 3 2 3 3 3 5 5 5 3 3 3 2 4 3 8 2 2 2 3 3 2
7 10 9 12 5 5 6 8 10 7 9 16 17 17 13 12 10 10 11 8 7 6 7 9 8 7 6 3 4 4 4 4 4 4 5 3 3 3 4 3 4 3 3 2 2 2 4 4 2
3 8 10 14 9 15 15 12 12 17 19 17 16 14 13 12 13 9 10 12 8 6 7 7 8 7 5 6 4 4 7 4 4 3 8 6 5 5 4 4 3 3 3 3 3 3 4 5 3
3 4 9 11 14 15 18 15 10 16 19 17 15 12 12 14 15 9 8 9 7 6 8 8 8 7 5 5 6 3 2 4 3 4 6 7 4 3 4 4 3 3 3 3 3 4 4 4 4
2 4 14 6 5 2 14 11 15 21 17 15 12 11 11 13 12 13 11 9 11 6 8 9 8 7 6 7 6 4 4 4 4 4 6 6 4 5 3 3 3 3 4 5 3 4 3 4 3
2 3 1 4 4 3 4 7 15 19 18 13 10 10 12 13 14 11 8 9 7 7 11 8 7 7 6 5 3 3 3 2 2 2 4 5 4 6 6 5 5 5 4 4 3 3 3 4 4
1 4 4 6 8 1 2 8 13 18 15 12 11 9 13 12 12 9 7 7 9 12 11 8 7 8 7 5 3 3 5 4 3 3 2 3 2 3 5 5 4 5 4 3 3 3 3 4 3
4 2 1 3 7 5 4 2 17 17 17 16 15 14 14 12 15 13 9 8 8 13 12 9 7 8 7 4 3 2 1 1 3 4 4 5 2 4 5 4 5 5 5 4 3 4 4 2 2
9 4 5 11 8 2 4 10 15 16 15 15 14 14 13 13 17 13 13 8 14 13 10 9 9 8 4 3 2 1 3 3 3 4 6 5 3 3 5 4 5 5 6 6 5 3 4 3 1
6 13 6 5 4 3 5 3 5 12 17 18 17 15 17 16 15 10 8 12 14 15 11 10 9 8 9 4 3 3 3 2 3 4 4 4 5 4 4 5 5 5 4 6 5 4 2 3 4
9 14 16 10 4 9 5 6 4 6 15 17 16 18 15 18 14 13 13 15 14 14 14 10 9 10 10 7 3 2 1 2 2 1 2 4 4 3 5 6 6 6 5 5 5 5 5 2 2
3 9 25 15 6 4 0 4 5 4 12 14 17 16 15 8 7 10 16 14 16 16 11 9 9 8 8 8 6 6 4 4 4 4 3 4 5 1 5 6 6 6 4 5 4 4 4 4 1
2 27 23 17 7 7 2 1 8 2 5 10 20 15 14 16 12 13 17 17 17 14 13 12 11 9 7 6 7 5 5 3 2 2 3 4 5 4 3 4 5 6 4 5 5 4 5 3 3
17 6 7 5 5 5 4 2 6 5 8 4 10 9 9 17 16 14 15 16 15 11 11 11 11 11 9 8 8 8 7 6 4 3 3 3 2 1 2 4 6 5 5 5 4 5 4 4 3
4 5 5 8 6 4 2 4 9 8 10 6 14 12 6 4 4 6 5 10 13 13 13 10 11 11 10 9 8 8 7 7 7 6 5 5 4 4 6 6 5 5 5 6 6 6 6 6 4
8 8 8 5 4 5 2 2 7 6 8 15 15 14 8 1 4 4 5 3 8 15 15 15 13 11 8 10 10 8 8 5 5 6 5 5 5 5 6 6 5 5 6 7 7 5 5 5 5
5 3 8 9 4 3 2 5 9 4 11 7 11 13 11 8 7 10 16 7 7 14 17 16 14 13 11 12 7 8 7 7 7 7 6 6 6 4 6 6 7 7 6 7 6 4 5 5 5
4 12 6 4 6 3 3 4 7 3 4 5 9 12 14 11 6 7 12 10 4 9 14 14 14 16 15 12 9 7 9 9 7 6 6 6 6 5 4 5 6 6 6 6 6 5 5 5 4
5 1 6 6 6 7 1 7 9 8 6 11 10 9 12 6 9 11 6 1 6 1 6 12 13 14 12 11 10 9 10 10 7 6 6 7 6 7 7 6 6 7 6 6 6 6 6 6 6
7 8 6 6 5 3 4 8 3 5 6 7 9 10 11 9 9 7 4 6 5 7 6 8 9 13 14 13 10 11 9 8 7 7 7 6 7 6 8 7 7 7 8 7 6 6 5 5 5
Wind_Direction
215 206 201 259 69 72 119 82 134 123 117 183 159 145 106 49 28 143 160 157 134 133 135 129 130 121 118 115 107 106 102 93 93 95 95 93 97 93 102 99 106 116 114 110 104 104 106 108 110
229 159 195 282 83 83 151 153 159 156 134 118 82 102 51 75 62 108 101 178 145 143 133 134 132 129 126 121 114 105 98 96 100 104 104 104 106 110 99 114 109 115 114 115 113 107 108 109 112
236 233 295 84 186 149 147 161 123 130 139 142 111 57 72 74 79 139 155 162 148 141 135 143 140 132 133 125 117 111 102 100 102 101 110 109 105 110 117 111 126 131 128 120 114 108 108 114 117
235 289 302 17 167 55 133 150 128 146 129 66 102 73 68 101 115 153 140 161 125 129 133 143 139 136 132 125 121 113 109 106 106 112 109 110 112 116 116 127 132 126 116 109 105 107 104 111 120
348 338 31 319 257 114 130 144 154 150 102 109 91 95 75 50 110 122 121 116 129 125 140 141 139 137 135 131 128 123 126 117 110 111 109 114 115 124 116 122 118 126 122 118 115 115 110 107 121
2 46 46 200 96 97 74 125 107 106 108 117 94 98 128 134 117 144 122 136 133 140 143 151 146 142 141 137 135 133 139 126 122 117 122 129 132 125 121 105 137 141 134 129 118 108 101 125 143
105 26 313 309 116 83 158 138 123 128 122 118 135 94 136 134 142 143 122 139 143 139 144 156 141 150 148 145 145 144 152 140 137 135 131 143 132 136 153 154 160 149 153 149 140 123 94 101 158
98 128 349 264 121 36 125 110 131 128 88 111 140 157 169 178 141 112 80 136 135 142 145 167 148 136 146 161 159 165 166 164 161 157 165 166 105 34 181 207 190 174 172 159 162 138 115 44 113
64 32 325 294 130 164 112 111 99 92 129 38 196 136 140 137 130 128 130 104 137 150 170 169 151 157 177 171 185 180 183 192 182 176 172 122 133 180 275 299 272 205 223 178 175 159 157 303 129
62 50 286 279 143 151 131 130 131 105 95 96 97 104 127 137 138 149 143 135 161 171 185 191 167 179 184 181 194 196 228 209 195 192 165 171 152 203 234 236 274 242 242 180 183 186 251 325 350
76 277 300 347 37 133 122 119 95 120 125 150 143 143 142 142 181 176 138 160 199 177 184 178 177 185 191 191 178 193 226 211 225 178 169 180 157 205 244 199 248 272 250 186 268 291 302 282 304
332 331 284 300 318 95 98 107 121 118 147 147 137 138 146 165 187 190 177 170 216 182 174 175 168 184 205 177 186 180 224 218 216 144 177 165 182 216 229 211 224 234 237 193 228 258 267 263 261
130 338 342 338 82 98 95 94 99 114 130 135 138 147 163 181 188 213 198 183 195 184 188 174 173 182 197 178 194 201 220 214 208 177 169 177 198 215 211 222 199 211 200 203 204 221 243 258 238
266 133 312 322 325 97 110 122 109 129 136 141 151 163 178 194 198 192 206 204 188 192 188 165 182 163 172 147 170 177 173 175 152 153 171 192 207 207 206 202 204 201 206 206 199 205 216 239 231
284 80 337 321 313 35 88 91 121 140 142 150 171 177 193 212 212 202 199 209 190 189 170 176 177 169 173 172 182 157 170 141 185 145 159 197 205 184 193 225 209 211 200 192 189 216 225 242 240
130 75 295 295 317 346 58 159 143 150 149 164 185 193 199 218 226 226 219 204 169 169 174 180 177 176 164 201 194 177 122 114 173 189 166 206 237 193 164 211 219 198 185 176 181 191 234 244 231
164 110 226 330 331 305 13 145 168 158 163 169 185 202 206 230 239 228 216 187 165 168 174 181 184 171 189 213 232 206 167 194 162 213 215 190 196 101 171 192 180 140 155 183 174 206 211 240 262
323 204 68 48 331 347 356 202 168 168 173 175 191 202 213 219 231 226 225 172 169 171 177 175 188 179 188 199 238 314 51 197 189 230 227 220 232 232 182 166 150 140 140 162 169 204 234 238 242
171 159 11 343 312 344 316 139 174 183 191 188 194 201 211 221 234 224 213 188 182 179 173 184 186 187 156 173 169 216 236 205 202 224 246 227 204 218 206 152 142 144 155 178 186 180 212 268 227
157 116 67 304 295 208 53 9 300 207 204 202 191 207 208 220 225 201 180 165 171 177 184 186 184 179 188 163 196 194 220 181 184 196 228 244 218 204 183 158 163 158 157 167 185 169 163 233 196
179 181 162 186 165 29 92 321 258 279 217 215 202 206 208 205 206 216 163 177 175 182 194 181 173 172 179 171 176 213 66 44 34 181 211 236 188 173 176 169 163 164 154 173 193 178 186 221 269
294 154 160 167 136 170 343 281 271 210 223 209 209 200 202 212 204 175 175 177 184 193 184 178 176 184 197 174 177 185 170 176 212 211 192 225 153 198 210 172 162 164 174 170 200 173 187 158 252
231 154 165 155 132 127 334 354 278 76 247 210 202 202 201 202 196 190 182 184 192 181 184 189 184 187 199 185 198 189 186 184 196 166 195 226 226 238 186 196 177 166 181 174 196 195 198 167 162
157 144 135 149 149 61 262 110 287 199 227 188 205 206 222 200 211 205 187 187 192 185 186 186 187 204 193 188 204 210 199 168 182 165 188 231 283 226 207 203 185 191 184 179 194 227 213 210 200
167 37 19 4 19 221 226 71 238 221 247 183 147 124 54 34 31 149 157 198 189 186 190 190 187 203 204 190 192 210 214 178 190 182 207 186 208 216 221 201 189 180 191 198 186 204 209 197 204
197 156 143 139 309 272 329 257 272 327 320 144 155 177 137 36 318 71 47 347 233 190 189 192 191 203 197 201 200 202 208 193 199 189 206 210 208 212 193 203 196 218 204 196 207 192 203 199 222
184 99 133 102 354 360 339 300 307 12 57 105 173 172 181 180 165 84 291 280 250 211 194 191 188 202 205 207 193 196 204 203 209 205 195 217 221 227 198 201 213 220 237 223 195 200 210 204 216
150 157 101 33 138 223 291 273 233 316 115 157 169 200 207 197 170 179 243 269 229 213 207 194 192 194 201 205 200 192 203 205 210 204 205 218 219 234 199 217 231 234 238 231 207 212 222 217 238
352 204 68 116 147 147 167 263 204 219 205 187 194 196 213 203 217 238 233 65 338 34 204 201 192 196 195 199 203 193 204 209 204 212 202 201 208 214 222 203 223 242 242 238 219 222 226 221 235
182 199 141 140 218 147 118 273 234 173 223 165 188 192 207 214 235 245 303 359 294 292 206 199 212 197 202 200 192 202 206 200 197 210 217 206 212 213 221 213 212 232 230 229 219 231 232 231 251